Home   Weather   Lanzhou   Past weeks

Flag for China Past Weather in Lanzhou, Gansu, China — Yesterday and Last 2 Weeks

Now
16 °F

Clear.


Feels Like: 7 °F
Forecast: 21 / 54 °F
Wind: 6 mph from Northwest

Location: Lanzhou / Zhongchuan

Current Time: Dec 11, 2016 at 4:29:30 am

Latest Report: Dec 11, 2016 at 4:00 am


Visibility: 4 mi

Pressure: 29.83 "Hg (24.43 "Hg at 1543m altitude)

Humidity: 79%

Dew Point: 10 °F

Location of LanzhouLocation

Past Weather in Lanzhou — Graph

°F

Lanzhou Temperature Yesterday

Maximum temperature yesterday: 41 °F (at 3:00 pm)
Minimum temperature yesterday: 16 °F (at 8:00 am)
Average temperature yesterday: 28 °F

High & Low Weather Summary for the Past Weeks

 TemperatureHumidityPressure
High52 °F (Dec 4, 3:00 pm)85% (Nov 26, 5:00 am)30.57 "Hg (Nov 26, 5:00 am)
Low9 °F (Nov 26, 5:00 am)15% (Dec 4, 4:00 pm)29.86 "Hg (Dec 11, 1:00 am)
Average27 °F53%30.23 "Hg
* Reported Nov 26 3:00 am — Dec 11 3:00 am, Lanzhou, Weather by CustomWeather, © 2016

Note: Actual official high and low records may vary slightly from our data, if they occured in-between our weather recording intervals... More about our weather records

Advertising

Lanzhou Weather History for the Previous 24 Hours

Scroll right to see more
 ConditionsComfort  
Time TempWeatherWind HumidityBarometerVisibility
3:00 am
Sun, Dec 11
16 °FClear.3 mph79%29.86 "Hg4 mi
2:00 am16 °FClear.3 mph79%29.86 "Hg4 mi
1:00 am16 °FClear.1 mph79%29.86 "Hg4 mi
12:00 am18 °FClear.3 mph79%29.89 "Hg4 mi
11:00 pm
Sat, Dec 10
21 °FClear.3 mph68%29.92 "Hg4 mi
10:00 pm25 °FClear.6 mph63%29.92 "Hg4 mi
9:00 pm27 °FClear.6 mph59%29.92 "Hg4 mi
8:00 pm27 °FClear.3 mph59%29.92 "Hg4 mi
7:00 pm28 °FClear.1 mph55%29.92 "Hg4 mi
6:00 pm36 °FClear.1 mph41%29.89 "Hg4 mi
5:00 pm39 °FClear.3 mph36%29.89 "Hg4 mi
4:00 pm41 °FPassing clouds.8 mph36%29.89 "HgN/A
3:00 pm41 °FClear.3 mph33%29.89 "Hg5 mi
2:00 pm39 °FClear.1 mph36%29.92 "Hg4 mi
1:00 pm37 °FClear.1 mph41%29.98 "Hg5 mi
12:00 pm36 °FClear.3 mph41%30.01 "Hg5 mi
11:00 am34 °FClear.1 mph44%30.04 "Hg5 mi
10:00 am25 °FClear.3 mph63%30.07 "Hg4 mi
9:00 am19 °FClear.3 mph73%30.07 "Hg10 mi
8:00 am16 °FClear.1 mph79%30.07 "Hg10 mi
7:00 am18 °FClear.3 mph79%30.07 "Hg10 mi
6:00 am21 °FClear.3 mph68%30.07 "Hg10 mi
5:00 am23 °FClear.3 mph68%30.12 "Hg10 mi
4:00 am21 °FClear.3 mph74%30.15 "Hg10 mi
Weather by CustomWeather, © 2016

See weather overviewHow to use our weather pages